Location: Vancouver
(49.2500°N, 123.1330°W)
Time: 20:43:42
(UTC-07:00)

Iridium 35 - Visible Passes

Search period start: 26 July 2016 00:00
Search period end: 05 August 2016 00:00
Orbit: 776 x 779 km, 86.4° (Epoch: 26 July)

Date Brightness Start Highest point End Pass type
(mag) Time Alt. Az. Time Alt. Az. Time Alt. Az.
26 Jul 5.1 22:52:31 10° N 22:57:46 82° W 23:01:49 17° S visible
27 Jul 7.5 00:35:27 10° NW 00:37:36 13° WNW 00:39:45 10° W visible
27 Jul 5.2 22:19:01 10° N 22:24:12 59° E 22:28:32 15° SSE visible
28 Jul 7.1 00:00:37 10° NNW 00:04:28 21° WNW 00:08:19 10° SW visible
28 Jul 5.8 21:45:43 10° NNE 21:50:30 35° ENE 21:55:15 10° SE visible
28 Jul 6.4 23:26:30 10° NNW 23:31:13 35° W 23:35:44 11° SSW visible
29 Jul 5.5 22:52:42 10° N 22:57:50 60° W 23:02:27 13° SSW visible
30 Jul 5.0 22:19:05 10° N 22:24:21 81° E 22:29:12 12° S visible
31 Jul 7.5 00:01:22 10° NW 00:04:21 16° WNW 00:07:21 10° WSW visible
31 Jul 5.4 21:45:40 10° N 21:50:44 47° E 21:55:46 10° SSE visible
31 Jul 6.9 23:26:55 10° NNW 23:31:11 26° W 23:35:25 10° SW visible
01 Aug 6.1 22:52:56 10° NNW 22:57:52 43° W 23:02:46 10° SSW visible
02 Aug 5.2 22:19:13 10° N 22:24:27 74° W 22:29:39 10° S visible
03 Aug 7.7 00:02:44 10° NW 00:04:12 11° WNW 00:05:40 10° W visible
03 Aug 5.1 21:45:41 10° N 21:50:54 66° E 21:56:06 10° SSE visible
03 Aug 7.4 23:27:29 10° NNW 23:31:06 19° WNW 23:34:41 10° WSW visible
04 Aug 6.7 22:53:17 10° NNW 22:57:52 32° W 23:02:25 10° SW visible
